Retour au catalogue

CZ-6A DEB

ActifSSO
NORAD 56272·DEBRIS·🇨🇳 China

Lancé Nov 11, 2022 depuis Taiyuan Satellite Launch Center

Loading…

Prochains Passages (prochaines 24 heures)

TLE

FraisSource: Space-Track

Époque: Sep 14, 2026, 07:29 UTC

1 56272U 22151ACQ 26257.31185991  .00003207  00000-0  11307-2 0  9998
2 56272  98.7561 284.4233 0011091 340.9212  19.1556 14.35450658180174

Suivez CZ-6A DEB en temps réel avec AllMySat

Download on the App Store